CAPE
1023 1100 1137 1174 1191 1192 1171 1159 1145 1091 1036 1001 993 1002 1011 1006 984 968 921 867 937 1165 1364 1498 1577 1635 1729 1838 1878 1916 2015 2170 2300 2409 2406 2398 2358 2358 2374 2372 2442 2498 2519 2595 2681 2725 2682 2596 2564 2514 2430 2394 2402 2393 2260 2044 1386 523 178 182 62 16 19 34 110 210 259 6 20 72 103 21 62 110 170 164 194 310 430 570 562 488 479 564 502
992 1073 1122 1164 1198 1206 1182 1172 1166 1139 1100 1084 1070 1050 1020 997 984 970 936 892 976 1151 1287 1426 1524 1578 1656 1742 1844 1884 1942 2032 2163 2338 2430 2422 2396 2336 2309 2320 2367 2393 2415 2480 2531 2558 2608 2575 2554 2582 2489 2442 2417 2396 2380 2282 2143 1783 845 250 292 170 12 122 102 158 330 195 35 124 370 429 457 209 293 214 224 264 281 398 424 407 405 394 404
978 1044 1106 1154 1198 1212 1201 1187 1184 1172 1144 1116 1100 1077 1048 1021 996 976 963 930 1115 1157 1256 1371 1510 1560 1594 1685 1764 1837 1906 1958 2062 2230 2334 2402 2429 2359 2315 2310 2317 2338 2346 2391 2414 2427 2473 2497 2518 2539 2459 2375 2356 2344 2357 2318 2184 2069 1811 1261 627 338 156 72 238 265 248 359 282 323 368 405 442 437 397 232 332 365 356 302 274 324 337 301 287
998 1029 1082 1130 1176 1205 1214 1209 1190 1197 1175 1138 1120 1102 1060 1041 1023 1116 1037 986 1112 1311 1318 1391 1511 1573 1594 1657 1688 1792 1873 1939 1998 2068 2199 2312 2370 2392 2394 2329 2344 2308 2315 2328 2337 2336 2313 2306 2394 2428 2367 2279 2187 2237 2238 2274 2246 2155 2055 1859 1520 1164 537 153 163 302 445 426 426 289 353 388 452 473 503 488 432 397 390 391 290 242 295 318 278
1016 1042 1072 1109 1145 1188 1214 1210 1207 1193 1172 1159 1154 1110 1076 1042 1021 1022 1190 1210 1155 1258 1472 1522 1570 1617 1652 1668 1695 1735 1822 1909 1960 2036 2102 2190 2250 2316 2342 2349 2345 2366 2374 2370 2341 2306 2323 2337 2340 2326 2297 2206 2113 2053 2093 2089 2026 2024 1941 1879 1810 1604 1299 1020 736 425 293 334 385 400 314 332 398 452 477 505 565 466 453 438 428 294 316 216 220
1010 1034 1059 1096 1132 1167 1200 1210 1208 1190 1173 1172 1158 1134 1100 1054 1016 996 1102 1257 1309 1276 1361 1603 1690 1728 1744 1759 1752 1757 1788 1862 1964 2034 2118 2184 2244 2276 2311 2342 2307 2340 2351 2356 2360 2312 2335 2334 2364 2308 2299 2195 2136 2012 1946 1904 1868 1818 1782 1740 1684 1587 1509 1388 1214 1030 847 699 560 470 404 348 388 371 417 448 447 559 563 486 416 212 312 385 342
989 1026 1048 1069 1099 1127 1162 1193 1180 1160 1154 1156 1147 1137 1116 1074 1042 996 1122 1170 1266 1364 1362 1444 1682 1805 1856 1883 1874 1864 1840 1844 1940 2031 2116 2235 2296 2351 2356 2359 2374 2352 2342 2284 2274 2300 2316 2338 2336 2311 2268 2198 2134 2033 1925 1848 1763 1691 1674 1615 1552 1482 1428 1350 1256 1160 1075 1002 917 788 687 623 544 534 532 448 437 441 496 436 461 555 276 344 400
980 1016 1054 1070 1091 1100 1120 1129 1132 1122 1113 1120 1127 1122 1097 1071 1038 994 1143 1198 1242 1298 1426 1438 1496 1693 1832 1893 1982 2004 1981 1950 1956 2023 2115 2216 2339 2380 2426 2431 2433 2419 2390 2400 2311 2322 2326 2326 2330 2317 2282 2240 2176 2110 2018 1922 1823 1728 1672 1612 1556 1470 1424 1349 1259 1196 1124 1049 976 918 814 759 739 707 698 688 668 601 506 478 495 489 532 425 336
998 1037 1078 1108 1112 1099 1084 1091 1104 1094 1092 1105 1106 1102 1077 1050 1037 1126 1198 1239 1286 1328 1423 1520 1515 1548 1651 1770 1882 1990 2056 2084 2076 2079 2118 2189 2320 2404 2428 2469 2504 2514 2499 2396 2367 2354 2354 2352 2345 2325 2300 2271 2222 2186 2148 2058 1982 1900 1803 1736 1682 1638 1568 1514 1437 1360 1297 1219 1213 1181 1146 1096 1046 1018 998 971 967 962 915 883 833 756 656 631 588
1043 1079 1123 1181 1195 1140 1125 1116 1111 1115 1112 1120 1113 1100 1091 1085 1079 1090 1153 1244 1302 1376 1434 1548 1633 1640 1650 1706 1772 1834 1940 2039 2028 2017 2026 2210 2253 2332 2375 2426 2489 2534 2554 2529 2479 2402 2364 2376 2365 2343 2328 2330 2310 2301 2286 2257 2216 2165 2082 2000 1934 1904 1854 1778 1774 1702 1646 1608 1548 1459 1421 1378 1328 1302 1294 1316 1306 1330 1298 1286 1239 1222 1138 1063 1008
1227 1216 1241 1258 1282 1302 1292 1204 1176 1180 1190 1164 1166 1171 1174 1180 1210 1224 1190 1192 1300 1352 1412 1432 1588 1708 1776 1803 1804 1848 1900 1933 1853 1906 2013 2066 2088 2305 2342 2398 2443 2524 2538 2529 2586 2562 2543 2553 2592 2468 2374 2383 2404 2404 2408 2392 2378 2350 2323 2288 2228 2146 2030 2019 1946 1962 1967 1850 1822 1758 1747 1673 1698 1690 1653 1695 1812 1920 1956 1986 1918 1852 1774 1674 1651
1408 1399 1381 1385 1413 1431 1430 1424 1388 1298 1265 1274 1270 1270 1267 1300 1354 1378 1382 1351 1263 1329 1358 1358 1405 1508 1678 1834 1914 1925 1968 1842 1850 1890 1921 1975 2032 2158 2346 2370 2436 2494 2541 2612 2638 2645 2654 2606 2604 2602 2653 2668 2558 2460 2432 2450 2448 2444 2434 2422 2398 2382 2388 2356 2290 2176 2155 2079 2019 2076 2080 2175 2352 2453 2482 2422 2468 2500 2478 2410 2359 2176 2059 1991 1958
1628 1632 1599 1593 1600 1574 1574 1584 1556 1517 1394 1380 1372 1380 1406 1454 1510 1539 1560 1542 1488 1395 1398 1366 1377 1374 1419 1547 1700 1868 2009 1876 1902 1942 1982 1996 2023 2042 2078 2325 2461 2494 2569 2610 2664 2702 2686 2738 2740 2777 2737 2504 2499 2596 2740 2646 2500 2487 2478 2463 2452 2443 2458 2491 2479 2452 2418 2416 2547 2568 2670 2529 2614 2733 2634 2636 2588 2553 2511 2495 2431 2355 2258 2209 2216
1904 1877 1850 1832 1810 1769 1747 1726 1709 1684 1641 1529 1526 1544 1569 1632 1669 1704 1716 1721 1725 1658 1491 1446 1430 1434 1424 1408 1447 1522 1679 1736 1836 1913 1957 1997 2046 2086 2122 2104 2300 2452 2526 2644 2685 2717 2738 2795 2836 2819 2845 2819 2760 2742 2698 2696 2727 2556 2500 2463 2429 2419 2424 2455 2511 2682 2724 2778 2900 2784 2784 2692 2648 2449 2255 2458 2513 2392 2345 2364 2401 2357 2432 2451 2441
2130 2106 2090 2066 2040 1998 1947 1897 1860 1833 1759 1708 1716 1732 1759 1801 1844 1888 1902 1921 1950 1929 1800 1634 1475 1508 1404 1424 1364 1417 1426 1372 1510 1702 1861 1950 2005 2044 2106 2169 2164 2242 2427 2523 2606 2702 2710 2812 2865 2849 2856 2882 2858 2752 2730 2741 2674 2620 2519 2433 2418 2430 2436 2486 2707 2826 2955 2940 2588 2995 2804 2547 2485 2503 2605 2535 2484 2470 2420 2320 2419 2258 2095 1990 1889
2326 2305 2311 2293 2268 2216 2159 2096 2046 1937 1902 1907 1914 1940 1962 1991 2042 2061 2116 2192 2255 2233 2163 2013 1832 1646 1509 1490 1473 1454 1422 1393 1383 1409 1524 1710 1856 1968 2038 2081 2096 2112 2165 2326 2429 2534 2617 2701 2762 2797 2843 2860 2697 2600 2601 2575 2718 2662 2613 2528 2478 2480 2499 2632 2769 2790 2418 2467 2914 2855 2865 2772 2764 2924 3034 2984 2868 2775 2530 2450 2391 2124 1854 1645 1765
2486 2518 2524 2497 2478 2425 2372 2318 2267 2139 2122 2121 2127 2130 2141 2169 2196 2280 2376 2436 2467 2458 2414 2345 2243 2122 1973 1822 1670 1619 1522 1522 1480 1472 1468 1467 1552 1698 1816 1891 1919 1971 1992 2155 2289 2383 2482 2606 2666 2758 2857 2856 2638 2603 2609 2621 2624 2646 2694 2567 2495 2505 2707 2776 2852 2723 2510 2871 2900 2932 2804 2613 2586 2621 2659 2586 2513 2421 2348 2218 2303 2173 1903 1797 1874
2568 2643 2686 2679 2686 2620 2573 2534 2481 2352 2327 2318 2252 2273 2330 2398 2472 2518 2575 2606 2616 2618 2615 2615 2594 2527 2408 2285 2138 1987 1846 1674 1600 1598 1583 1570 1568 1572 1621 1672 1728 1776 1834 1969 2162 2299 2432 2274 2471 2726 2782 2810 2602 2601 2617 2636 2662 2664 2566 2604 2636 2696 2837 3022 2864 2698 2466 2449 2565 2640 2593 2491 2376 2402 2388 2270 2218 2102 1993 1988 1928 1860 1812 1666 1708
2509 2637 2742 2790 2822 2814 2656 2522 2546 2562 2601 2612 2632 2638 2678 2723 2731 2751 2804 2868 2924 2994 3052 3032 2998 2946 2876 2742 2591 2450 2306 2173 2021 1826 1713 1709 1716 1718 1712 1716 1728 1755 1812 1910 2020 2165 2291 2264 2196 2289 2578 2662 2561 2581 2608 2583 2685 2736 2805 2842 2868 2907 3090 3040 2766 2468 2438 2407 2377 2549 2589 2396 2319 2335 2464 2376 2171 1917 1783 1574 1470 1542 1510 1428 1304
2438 2577 2702 2514 2681 2759 2829 2864 2884 2884 2892 2928 2923 2936 2967 3006 3048 3078 3110 3145 3186 3248 3312 3316 3322 3281 3230 3072 2940 2779 2637 2500 2337 2156 1975 1835 1822 1816 1812 1813 1812 1822 1862 1928 2086 2210 2252 2344 2266 2197 2277 2264 2407 2596 2695 2851 2955 3004 3018 3077 3196 3270 3206 2863 2697 2679 2730 2187 2458 3062 2988 2792 2802 2522 2274 2034 1736 1405 957 888 821 842 917 960 968
2533 2689 2670 2882 3012 3036 3044 3056 3051 3059 3094 3101 3126 3151 3181 3189 3207 3226 3272 3314 3347 3386 3421 3483 3496 3485 3452 3373 3250 3141 2978 2828 2673 2478 2289 2102 1969 1861 1909 1898 1874 1875 1948 1975 2113 2210 2323 2410 2489 2229 2353 2545 2688 2882 3055 3165 3230 3254 3310 3434 3497 3449 3394 3072 2659 2150 2171 3066 3203 2983 2757 2433 2270 2088 1703 1115 600 716 686 413 338 323 398 414 436
2634 2756 2882 3104 3212 3262 3275 3276 3278 3273 3287 3320 3315 3329 3307 3326 3353 3368 3409 3432 3463 3506 3558 3580 3596 3604 3592 3596 3526 3445 3303 3148 3008 2842 2692 2548 2400 2249 2116 1972 1889 1914 1950 2128 2244 2295 2340 2462 2581 2598 2709 2904 3050 3182 3303 3376 3432 3495 3592 3621 3634 3622 3491 3135 2674 2579 2809 2570 2235 2121 2043 1898 1360 465 323 363 346 373 359 438 687 613 501 368 426
2790 2994 3262 3432 3444 3453 3480 3530 3567 3554 3538 3512 3499 3491 3487 3492 3507 3521 3547 3568 3610 3632 3671 3690 3690 3696 3680 3690 3657 3618 3538 3421 3300 3162 3039 2902 2766 2654 2546 2421 2322 2236 2190 2196 2302 2310 2479 2632 2788 2867 3018 3172 3292 3388 3466 3552 3646 3748 3782 3786 3305 2994 3066 2910 2539 2156 2018 1952 1948 1662 1015 490 446 349 223 165 137 122 110 192 222 272 407 512 504
3479 3614 3631 3646 3681 3684 3695 3722 3717 3721 3705 3694 3682 3655 3646 3614 3621 3637 3654 3700 3730 3764 3765 3770 3776 3790 3785 3776 3758 3710 3670 3610 3509 3424 3314 3194 3089 2978 2862 2752 2638 2583 2538 2531 2580 2650 2759 2917 3112 3170 3274 3358 3462 3555 3648 3767 3857 3762 3724 3558 3328 2912 2562 2337 2145 2017 1828 1182 46 68 192 268 198 97 60 44 38 79 50 68 106 133 162 138 178
3744 3848 3866 3782 3764 3792 3828 3832 3826 3794 3762 3734 3748 3742 3780 3762 3792 3770 3785 3816 3837 3858 3874 3880 3892 3888 3883 3862 3825 3778 3734 3666 3620 3544 3457 3360 3297 3222 3136 3048 2995 2926 2869 2844 2872 2972 3082 3237 3304 3405 3466 3532 3612 3723 3886 4041 3948 3816 3662 3352 2998 2690 2490 2241 1972 1364 239 1 3 1 0 5 7 1 1 1 0 1 2 2 3 4 7 31 57
4360 3880 3577 3635 3665 3699 3762 3805 3820 3847 3848 3811 3785 3771 3770 3800 3826 3858 3884 3921 3929 3930 3948 3962 3976 3974 3963 3931 3894 3859 3794 3748 3716 3660 3587 3548 3496 3466 3440 3392 3334 3256 3155 3129 3158 3280 3416 3457 3482 3535 3629 3671 3782 3937 4106 3984 3988 3695 3294 2958 2846 2515 2037 1428 428 1 1 2 2 4 2 2 0 0 0 1 3 1 0 1 1 0 0 2 4
4607 4453 4387 4056 3720 3660 3706 3752 3814 3828 3847 3848 3863 3910 3897 3914 3942 3966 3972 3990 3996 3996 3999 4000 4014 4016 4002 3964 3928 3898 3878 3846 3810 3794 3762 3729 3728 3784 3758 3721 3632 3530 3415 3370 3428 3564 3619 3626 3669 3728 3827 3960 4026 4092 3744 3676 3415 3130 2864 2678 2313 1651 135 0 0 0 1 1 1 1 1 1 2 2 0 0 0 0 0 1 4 4 4 5 10
4707 4688 4447 4242 4174 4056 3871 3850 3844 3752 3802 3838 3973 3987 4004 4034 4040 4067 4054 4047 4052 4056 4051 4050 4053 4056 4025 3993 3962 3939 3922 3924 3938 3978 3990 3936 3994 4020 4015 3954 3862 3776 3694 3641 3672 3730 3728 3775 3765 3861 3956 4122 3986 3846 3630 3348 3033 2826 2679 2409 1227 0 0 0 0 0 0 1 0 1 1 1 1 0 0 1 0 0 0 5 7 6 5 8 14
4680 4697 4673 4420 4209 4088 4064 4020 3956 3704 3751 3810 3878 3956 4050 4072 4110 4145 4125 4123 4128 4122 4074 4073 4078 4052 4027 4016 4034 4071 4127 4183 4208 4230 4231 4245 4252 4246 4197 4141 4090 3991 3910 3849 3808 3872 3880 3888 4023 4235 4163 3790 3586 3332 3063 3063 3069 2826 2051 4 0 0 0 0 0 0 0 0 0 0 0 0 0 0 0 1 0 1 2 6 6 7 8 14 16
4527 4652 4666 4614 4497 4238 4040 3930 3933 3816 3810 3868 3895 3956 3998 4076 4159 4154 4223 4177 4195 4219 4221 4250 4257 4268 4345 4421 4415 4381 4428 4475 4459 4444 4456 4463 4452 4370 4314 4262 4194 4066 3987 3991 4050 4182 4234 4166 3965 3727 3593 3529 3311 3063 2797 2330 1764 868 0 0 0 0 0 0 0 0 0 0 0 0 0 0 0 0 0 0 0 0 1 2 5 9 11 10 12
4314 4516 4556 4646 4534 4481 4300 4106 4070 4008 4002 4008 4000 4016 3990 4058 4174 4254 4259 4277 4320 4352 4384 4389 4416 4518 4623 4638 4589 4559 4558 4596 4627 4612 4604 4530 4470 4393 4351 4306 4254 4183 4148 4224 4191 4018 3742 3503 3437 3451 3405 3116 2941 2565 1869 891 0 0 0 0 0 0 0 0 0 0 0 0 0 0 0 0 0 0 0 0 0 0 0 2 5 9 10 10 9
4078 4308 4351 4519 4581 4588 4596 4431 4238 4196 4198 4186 4177 4168 4172 4151 4164 4297 4377 4511 4551 4590 4628 4687 4776 4830 4881 4876 4826 4722 4702 4747 4680 4640 4547 4420 4310 4293 4222 4136 4055 3982 3914 3705 3588 3549 3403 3324 3286 3279 3102 2865 2518 1889 602 0 0 0 0 0 0 0 0 0 0 0 0 0 0 0 0 0 0 0 0 0 0 1 2 3 5 7 7 10 12
3841 4250 4295 4346 4530 4616 4634 4598 4487 4383 4373 4368 4394 4390 4385 4341 4308 4270 4348 4566 4704 4809 4864 4968 5076 5083 5058 5050 5052 4996 4892 4805 4790 4712 4499 4214 4110 4012 3907 3852 3766 3586 3568 3443 3309 3344 3250 3232 3188 2987 2899 2870 1937 215 0 0 1 0 0 0 0 0 0 0 0 0 0 0 0 0 0 0 0 0 0 0 1 0 2 4 4 8 10 9 7
3632 4032 4227 4300 4342 4483 4580 4607 4606 4560 4436 4400 4408 4414 4426 4451 4446 4524 4518 4433 4650 4728 4830 5038 5152 5253 5259 5241 5173 5096 4922 4802 4627 4488 4354 4156 4045 3998 3940 3942 3745 3275 3342 3230 3106 3021 3034 3019 3071 2762 2082 1667 362 0 0 0 1 1 0 0 0 1 0 0 0 0 0 0 0 0 0 0 0 0 0 0 2 3 2 2 4 6 5 4 3
3197 3370 3725 4112 4282 4323 4438 4548 4618 4641 4639 4522 4436 4420 4504 4546 4580 4629 4593 4351 4220 4374 4451 4651 4809 4898 4984 5059 4902 4505 4632 4160 3894 3844 3818 3674 3895 3766 3578 3217 2921 3060 3170 3102 2950 2799 2808 2758 2632 2502 2113 932 1 1 1 2 1 1 0 0 0 0 0 0 0 0 0 0 0 0 0 0 0 0 0 0 1 2 3 4 4 5 5 5 4
2808 2947 3176 3637 4160 4316 4306 4357 4502 4623 4593 4663 4718 4710 4638 4620 4526 4404 4365 4108 4009 4065 4065 3978 3842 3838 4124 4393 4423 4338 3971 3346 3297 3480 3630 3618 3358 3033 3020 3011 3063 3110 2906 2616 2664 2709 2762 2398 2562 2558 1329 1 2 1 1 1 1 1 1 1 0 0 0 0 0 0 0 0 0 0 0 0 0 0 0 0 0 2 6 5 4 3 2 4 4
2415 2602 2791 3242 3862 4112 4216 4143 4179 4234 4363 4516 4642 4792 4740 4688 4496 4282 4202 4165 4120 3998 3950 3812 3493 3541 3506 3690 3605 3400 3138 3028 3012 3049 3096 3196 3161 2570 2128 2066 2114 2323 2280 2303 2281 2511 2470 2224 2056 1197 2 2 1 1 1 1 1 1 1 1 1 1 1 1 0 0 0 0 0 0 0 0 0 0 0 0 0 2 2 6 4 2 1 0 0
2031 2143 2324 2560 3112 3439 3866 3858 3686 3901 4020 4281 4384 4403 4454 4530 4553 4413 4282 4238 4151 3744 3532 3548 3331 3207 3117 3118 3010 2926 2888 2808 2742 2757 2793 2797 2770 2192 1191 895 948 1508 2064 2074 1672 1470 1057 32 4 2 1 2 1 0 1 0 1 1 1 1 0 1 0 0 0 0 0 0 0 0 0 0 0 0 0 0 0 0 0 1 4 2 4 2 2
1672 1838 1990 2113 2184 2753 2867 2972 3247 3627 3874 4018 4018 3986 4050 3996 4183 4314 4354 4176 3840 3544 3497 3532 3382 3059 2865 2824 2822 2599 2544 2616 2659 2584 2189 1810 1502 1789 1824 1615 1245 1224 1562 1158 46 10 10 12 9 2 1 0 0 1 0 0 0 1 1 1 0 1 0 0 0 0 0 0 0 0 0 0 0 0 0 0 0 0 0 0 1 2 2 2 2
1358 1438 1540 1770 2046 2158 2248 2373 2596 2984 3484 3839 3964 3856 3718 3444 3616 4006 4317 3874 3405 3109 3026 3143 3145 3122 2936 2748 2696 2653 2608 2494 2401 1838 1527 1622 1710 1574 1358 1264 720 602 454 7 7 6 4 2 1 1 2 0 0 0 1 1 1 0 0 0 0 0 0 0 0 0 0 0 0 0 0 0 0 0 0 0 0 0 0 0 0 0 0 0 0
1209 1196 1252 1393 1627 1723 1788 1922 2158 2585 3036 3443 3781 3633 3544 3379 3330 3906 4061 3699 3430 3206 2460 2747 3060 3099 3011 2815 2844 2547 2613 2441 2063 1788 1594 1648 1526 1362 1241 418 4 6 6 5 2 0 0 0 0 0 1 1 1 2 1 1 1 1 0 1 1 1 0 0 0 0 0 0 0 0 0 0 0 0 0 0 0 0 0 0 0 0 0 0 0
1172 1022 1046 1168 1296 1424 1571 1718 1987 2278 2628 3197 3430 3588 3540 3429 3370 3604 3646 3677 3261 2713 2579 2372 2310 2378 2563 2582 2650 2496 2137 2043 1882 1702 1400 951 747 446 3 4 3 3 4 2 0 1 1 1 1 2 2 2 2 2 2 2 2 2 2 2 2 1 1 0 0 0 0 0 0 0 0 0 0 0 0 0 0 0 0 0 0 0 0 0 0
1157 1148 1041 995 1044 1181 1378 1608 1781 2079 2300 2846 3352 3291 3384 3267 3205 3051 2874 2617 2660 2648 2600 2575 2662 2594 2428 2172 2148 2055 1881 1806 1686 1303 656 0 1 1 1 1 2 2 1 1 1 2 2 3 4 3 2 3 2 2 2 2 2 1 0 1 1 0 0 0 0 0 0 0 0 0 0 0 0 0 0 0 0 0 0 0 0 0 0 0 0
1117 1118 1104 968 891 1033 1258 1450 1583 1758 1934 2089 2529 3210 3088 3190 3178 2998 2683 2500 2437 2348 2049 2035 2064 1974 1852 1687 1760 1650 1404 1167 1042 778 268 0 0 1 1 2 2 2 2 4 2 3 3 3 5 5 5 4 4 2 1 0 2 2 1 0 0 1 2 1 1 0 1 0 0 0 0 0 0 0 0 0 0 0 0 0 0 0 0 0 0
912 947 962 849 757 848 1062 1218 1352 1432 1634 1774 1830 1711 1633 1641 2612 2373 1970 1752 1642 1609 1599 1580 1430 1332 1168 1093 998 994 798 634 445 0 0 0 0 0 0 1 2 4 4 2 2 4 7 6 4 4 7 7 5 4 4 3 1 1 0 0 0 0 0 0 0 1 1 1 0 0 0 0 0 0 0 0 0 0 0 0 0 0 0 0 0
714 797 874 867 866 846 812 906 998 1102 1198 1290 1320 1238 1382 1618 1716 1561 1521 1366 1333 1384 1296 1191 1011 940 976 800 748 726 449 1 0 1 1 0 1 0 0 1 3 4 4 3 3 5 8 6 4 6 5 4 3 4 6 4 7 6 2 0 0 0 0 0 0 0 1 1 1 1 0 0 0 0 0 0 0 0 0 0 0 0 0 0 0
586 639 757 781 731 718 776 830 874 908 922 1006 1131 1130 1013 953 959 1052 1253 1156 1174 1058 952 884 874 805 797 703 580 72 1 1 1 0 0 0 1 0 0 0 0 1 2 5 3 4 5 4 4 5 6 8 11 10 7 7 7 10 8 5 2 1 0 0 0 0 0 0 2 2 0 0 0 0 0 0 2 1 0 0 0 0 0 0 3
557 604 726 785 771 755 754 791 808 810 820 879 980 1042 1055 958 809 744 750 834 860 790 773 698 684 676 638 510 70 2 2 1 2 2 1 2 3 3 2 0 1 0 0 0 1 6 5 5 6 8 8 8 11 11 9 8 10 8 5 5 2 1 2 1 0 0 0 0 0 4 8 2 10 4 6 7 4 1 1 0 0 0 0 0 0
522 582 624 621 574 616 646 671 702 775 840 961 1008 1047 1051 1054 952 863 743 723 688 756 646 579 463 457 356 201 10 8 2 2 1 2 2 1 3 4 1 1 3 4 3 2 0 0 2 2 4 6 7 9 6 5 4 6 10 10 8 5 2 0 0 4 9 13 17 19 8 1 12 13 16 4 6 3 0 0 0 0 0 0 0 0 0
399 410 444 461 535 587 552 583 648 682 739 848 987 992 1009 880 754 730 742 607 565 542 515 285 106 54 60 42 8 2 2 2 2 6 10 8 6 3 3 4 4 5 6 6 6 4 2 1 1 1 2 4 4 4 7 7 6 5 6 5 4 3 0 1 6 13 22 24 10 8 5 2 0 0 0 0 0 0 0 2 2 0 0 0 0
165 187 252 359 419 526 535 564 540 545 662 762 829 810 787 723 692 613 476 407 195 145 143 127 114 90 36 4 3 6 5 4 6 7 5 3 2 2 2 2 2 4 8 7 5 4 4 4 5 6 5 6 4 3 2 5 4 5 6 5 4 4 1 1 4 12 11 12 4 3 3 1 5 6 10 12 10 12 12 7 2 1 2 0 0
Wind_Speed
16 17 18 16 16 15 15 16 16 17 16 15 13 13 13 12 10 9 12 10 10 8 6 6 6 5 5 3 3 3 3 2 3 4 4 4 4 4 4 5 4 3 3 4 5 7 10 11 11 12 9 9 8 6 7 8 7 8 8 9 nan nan nan nan 14 16 13 nan nan nan 11 nan nan 18 18 17 18 20 21 22 23 24 24 24 24
15 17 18 17 15 16 16 17 17 18 16 16 15 14 14 13 11 12 9 10 10 8 6 7 6 5 5 4 4 3 3 3 4 5 4 3 3 4 3 5 4 3 3 3 4 5 7 9 9 9 8 9 8 8 7 7 8 8 8 9 10 11 nan 14 14 13 17 11 nan 12 12 15 15 17 20 19 19 20 21 22 23 25 24 23 23
15 18 18 16 15 16 17 18 18 16 15 16 16 15 15 13 13 11 10 11 10 8 7 6 6 6 5 4 4 4 4 4 5 5 3 3 3 3 4 4 3 3 3 3 3 3 5 7 8 7 5 7 7 7 7 8 7 8 9 9 10 11 11 nan 12 14 14 14 14 12 14 14 18 17 19 18 17 20 21 22 23 24 24 24 23
15 16 16 15 15 16 17 18 17 17 17 17 15 15 15 15 13 11 11 12 10 9 8 6 6 6 5 5 5 5 5 5 5 5 4 4 3 2 4 4 3 3 3 2 2 3 6 6 6 5 5 5 5 4 5 6 7 7 8 8 9 10 10 10 13 13 11 11 12 13 12 13 14 15 16 17 18 19 20 20 22 23 24 25 25
14 14 14 14 15 16 16 17 15 15 15 18 17 17 16 16 14 12 13 12 10 11 9 8 7 6 6 6 6 6 6 7 6 5 4 4 3 3 3 4 3 3 3 3 3 3 5 6 5 5 5 4 2 2 2 5 5 5 6 6 7 7 6 8 10 10 10 12 10 12 14 14 14 15 19 18 18 18 19 21 23 23 24 25 26
13 14 15 15 14 14 15 15 14 14 14 16 16 16 17 14 14 15 14 12 11 12 9 10 7 6 7 7 7 7 7 8 7 5 4 4 3 4 5 5 4 4 4 3 3 4 5 5 5 6 6 5 2 1 1 4 2 4 5 5 6 6 7 8 9 9 10 10 9 7 13 14 13 17 21 22 19 17 18 21 23 25 25 24 27
13 14 14 13 15 13 13 13 14 14 14 14 16 17 16 15 15 14 15 14 13 12 11 9 8 8 8 8 8 7 7 8 8 6 4 3 3 4 5 5 6 6 5 4 3 3 3 4 4 6 5 4 2 2 1 2 2 4 5 6 7 8 8 9 10 10 10 9 8 9 8 14 17 12 20 23 22 23 21 18 19 28 29 29 27
13 13 14 14 14 13 13 13 14 14 16 16 17 16 15 15 14 14 15 13 13 11 11 10 10 10 9 9 7 7 7 7 8 6 5 4 4 3 4 6 6 6 5 5 4 3 2 2 2 4 3 2 2 2 2 3 2 3 4 7 9 11 11 11 11 11 10 10 10 7 9 11 17 18 20 23 22 23 28 28 23 23 29 31 31
12 11 12 11 11 13 15 16 18 18 19 19 18 17 16 15 15 15 14 13 14 13 12 11 10 9 8 8 7 7 6 7 8 7 5 4 4 4 4 6 6 5 5 5 5 4 3 2 1 1 1 4 7 7 5 5 3 3 4 9 11 13 14 14 14 13 12 12 10 12 12 13 17 18 20 25 27 24 27 35 30 28 29 30 31
12 11 10 10 13 16 17 19 19 20 20 18 18 17 17 17 16 15 13 13 14 14 13 11 10 9 7 7 7 7 6 8 8 10 8 6 5 5 4 4 4 5 5 5 5 4 3 3 4 7 7 7 7 8 9 9 10 7 5 9 12 14 16 16 17 16 15 14 15 15 14 14 19 22 21 25 27 28 30 35 33 32 34 33 30
13 11 10 13 16 17 18 18 19 18 17 18 18 17 17 18 17 15 14 15 15 14 13 11 10 9 7 7 6 6 6 8 9 10 10 9 6 5 5 5 5 5 5 5 5 5 5 5 6 7 6 4 5 8 8 10 11 12 13 13 14 16 14 15 16 18 18 14 14 16 15 12 17 22 23 22 27 30 30 33 35 34 35 35 32
13 13 14 16 16 16 16 17 17 17 17 17 17 17 18 17 15 14 15 15 15 15 11 9 9 8 9 8 7 5 5 7 9 9 10 9 8 6 8 7 6 5 5 5 6 7 6 6 6 6 4 1 1 4 8 11 13 14 15 15 16 18 20 22 22 22 23 20 17 19 17 15 15 23 25 27 29 32 35 37 40 43 42 45 44
15 16 16 16 15 15 16 16 16 16 16 16 18 18 17 15 14 15 14 16 16 13 10 10 9 8 7 7 6 6 7 8 9 9 9 10 11 9 7 6 6 4 4 4 6 6 7 7 7 5 3 3 4 6 7 10 16 19 18 18 18 20 22 24 27 26 26 23 20 17 23 20 16 22 31 32 34 34 37 41 46 51 49 46 44
17 16 17 16 16 16 16 16 15 15 17 17 18 17 15 13 14 15 16 16 14 12 10 9 9 8 8 7 7 7 8 8 10 9 9 11 12 12 8 6 5 3 1 4 6 7 6 6 5 4 2 3 6 9 11 12 14 18 19 21 22 22 25 28 29 30 28 26 22 20 23 30 16 20 28 37 38 40 41 40 43 50 50 47 42
16 16 15 16 17 16 15 14 13 14 15 15 16 14 13 14 13 14 15 14 13 11 10 9 9 9 9 9 9 8 9 8 10 10 10 12 13 13 10 8 6 2 2 3 4 6 5 4 3 2 0 5 9 11 14 15 17 19 20 21 25 26 28 29 34 37 38 32 27 25 27 33 28 22 25 39 45 47 46 41 41 50 56 50 40
14 15 15 16 16 15 13 12 11 11 12 12 12 11 10 10 10 12 12 12 12 12 12 11 10 10 11 11 11 7 9 9 10 9 12 13 16 14 12 9 7 5 3 3 4 5 3 2 1 1 3 6 10 15 17 17 18 19 20 23 24 25 25 29 30 37 42 39 34 35 38 36 36 35 35 39 45 48 49 42 42 53 64 60 47
12 12 12 12 11 9 8 6 6 6 7 7 6 5 5 5 7 10 9 9 10 10 10 12 13 13 14 12 11 9 10 10 11 10 12 15 17 13 12 11 8 7 5 4 4 3 2 2 4 5 6 8 11 16 19 21 19 20 20 23 26 26 25 26 31 37 46 45 41 42 42 44 43 43 40 37 39 41 45 47 46 51 63 61 51
12 11 9 8 7 6 5 4 3 3 3 2 2 2 2 4 5 8 8 8 9 9 11 12 12 14 13 13 14 13 13 12 12 11 13 17 16 14 13 12 9 8 7 6 7 6 4 3 5 6 7 9 12 17 19 22 22 20 19 20 25 29 29 30 36 48 43 41 38 36 36 39 37 33 31 33 37 44 50 50 50 51 56 62 56
14 12 10 10 9 8 7 5 4 4 3 2 2 1 2 4 5 7 8 8 8 11 12 12 12 13 14 15 14 13 14 14 13 12 14 17 16 14 14 13 11 10 11 10 9 9 9 8 7 9 9 10 12 16 19 23 22 18 20 21 25 32 35 42 47 40 36 31 28 30 33 42 43 40 38 40 42 46 52 51 49 53 52 54 54
16 16 15 15 13 12 11 8 7 7 5 5 5 4 5 7 8 9 8 9 9 11 12 14 13 14 14 14 17 16 14 15 16 14 15 17 18 15 15 14 12 12 12 12 12 12 12 11 11 11 12 11 11 14 17 23 24 21 24 26 27 29 47 59 60 50 41 35 33 38 41 41 42 43 42 41 43 47 50 54 55 55 53 50 49
21 19 19 18 16 15 14 12 10 9 9 9 9 9 11 9 9 10 10 10 10 10 11 12 13 14 15 14 14 15 17 17 16 18 16 18 18 18 16 14 14 15 15 14 16 14 14 15 15 14 16 16 16 16 18 22 26 27 29 28 30 37 47 56 65 61 48 43 39 40 43 44 44 43 42 42 43 45 49 53 55 57 55 50 47
25 24 22 20 18 17 16 16 14 14 14 15 15 14 14 13 14 13 13 12 11 11 11 12 12 13 15 14 13 13 14 15 18 21 20 19 19 20 17 16 16 17 16 16 18 18 16 16 17 21 24 24 25 24 25 25 28 31 32 31 31 34 43 56 56 55 50 45 42 42 44 45 45 43 43 42 41 43 44 46 50 53 54 51 47
32 28 26 24 23 21 20 18 18 18 17 16 15 15 17 17 17 17 16 15 14 12 12 12 12 11 13 14 15 15 16 17 17 20 22 21 21 20 18 17 18 20 20 17 18 17 19 19 23 32 35 37 36 35 34 33 36 35 34 37 38 40 45 51 55 56 53 49 47 46 45 46 44 44 44 43 42 44 45 46 45 47 47 46 46
35 32 29 27 27 26 25 23 22 22 20 19 17 17 20 20 20 20 19 19 18 16 16 15 14 12 11 12 13 14 17 19 20 19 22 24 23 22 19 16 18 22 20 19 20 22 24 27 31 35 37 37 37 37 38 38 37 38 37 38 42 46 47 51 54 56 55 54 nan nan 50 49 47 nan nan nan nan nan nan nan 42 43 42 40 39
36 34 34 32 31 30 29 28 26 24 22 21 20 21 22 23 22 22 23 22 21 21 20 21 18 15 14 12 12 13 16 19 22 23 22 24 25 23 21 20 17 18 23 26 28 29 33 36 37 36 36 39 41 43 42 42 42 41 42 43 45 47 49 50 53 55 56 nan nan nan nan nan nan nan nan nan nan nan nan nan nan nan nan nan nan
37 36 34 35 34 35 32 30 27 24 22 23 23 25 25 25 25 25 25 23 23 23 24 25 23 21 19 16 15 14 17 19 21 26 28 25 25 24 22 21 20 23 24 31 35 37 36 38 41 42 42 41 42 42 43 43 44 45 45 46 46 48 50 52 54 nan nan nan nan nan nan nan nan nan nan nan nan nan nan nan nan nan nan nan nan
41 41 38 37 37 36 33 31 30 27 27 28 29 29 29 29 29 29 29 28 27 27 27 28 28 28 24 22 20 20 21 23 23 24 27 29 28 28 29 28 31 33 30 31 35 36 39 39 41 44 46 48 48 45 46 45 46 46 46 47 49 50 52 nan nan nan nan nan nan nan nan nan nan nan nan nan nan nan nan nan nan nan nan nan nan
45 44 42 41 40 38 35 32 33 33 33 34 34 34 35 34 34 33 33 33 32 31 31 31 30 31 30 28 26 26 27 25 24 24 24 26 29 31 32 33 34 33 34 33 34 39 41 44 46 44 45 45 44 44 46 47 48 48 49 50 51 nan nan nan nan nan nan nan nan nan nan nan nan nan nan nan nan nan nan nan nan nan nan nan nan
51 49 48 47 45 43 41 39 39 42 47 49 49 48 44 41 39 38 38 37 36 36 35 34 34 34 34 33 34 31 30 28 22 24 24 26 28 32 31 32 35 35 37 42 43 43 44 44 45 44 43 44 46 47 47 48 49 49 51 nan nan nan nan nan nan nan nan nan nan nan nan nan nan nan nan nan nan nan nan nan nan nan nan nan nan
52 51 50 49 49 49 50 49 50 50 50 51 51 52 54 53 51 46 46 48 48 44 43 39 39 39 38 38 37 34 30 27 36 36 34 34 35 35 37 39 39 41 44 46 45 44 44 45 44 46 47 48 49 49 49 49 49 50 nan nan nan nan nan nan nan nan nan nan nan nan nan nan nan nan nan nan nan nan nan nan nan nan nan nan nan
50 51 50 50 49 51 52 53 52 53 52 52 52 53 52 58 64 62 56 54 54 55 51 49 47 45 44 44 46 51 48 50 48 46 46 44 44 45 47 48 49 49 49 49 46 46 46 47 48 49 50 51 52 52 52 52 nan nan nan nan nan nan nan nan nan nan nan nan nan nan nan nan nan nan nan nan nan nan nan nan nan nan nan nan nan
44 46 48 48 49 51 51 52 53 53 53 52 53 53 54 56 58 63 62 61 61 60 58 56 56 55 53 54 54 51 53 54 55 53 53 53 52 51 52 54 52 51 47 51 51 49 49 50 51 51 51 53 53 54 54 nan nan nan nan nan nan nan nan nan nan nan nan nan nan nan nan nan nan nan nan nan nan nan nan nan nan nan nan nan nan
38 40 42 44 44 45 48 48 49 50 50 50 50 50 51 50 52 52 54 58 61 59 58 58 59 59 62 62 59 57 54 53 56 57 56 56 57 56 55 54 53 52 54 53 54 52 51 52 52 52 53 54 54 55 nan nan nan nan nan nan nan nan nan nan nan nan nan nan nan nan nan nan nan nan nan nan nan nan nan nan nan nan nan nan nan
36 36 37 38 39 39 39 40 41 41 42 43 43 44 43 44 44 44 44 44 47 51 54 56 56 59 60 62 64 62 60 57 56 57 57 57 57 59 59 57 59 55 57 55 54 53 52 52 52 53 54 54 55 nan nan nan nan nan nan nan nan nan nan nan nan nan nan nan nan nan nan nan nan nan nan nan nan nan nan nan nan nan nan nan nan
40 39 39 37 37 38 38 37 37 38 37 37 38 39 39 38 38 38 38 39 41 41 41 43 48 52 51 51 56 58 59 60 60 59 57 55 54 54 59 61 60 58 58 55 53 51 50 51 52 53 53 54 nan nan nan nan nan nan nan nan nan nan nan nan nan nan nan nan nan nan nan nan nan nan nan nan nan nan nan nan nan nan nan nan nan
41 41 40 39 39 39 39 39 38 37 37 38 38 38 37 37 38 38 39 40 40 41 41 40 41 45 51 50 52 54 57 60 59 56 53 53 53 58 60 59 60 58 58 55 54 53 52 52 53 54 55 nan nan nan nan nan nan nan nan nan nan nan nan nan nan nan nan nan nan nan nan nan nan nan nan nan nan nan nan nan nan nan nan nan nan
39 40 40 40 40 40 41 41 40 40 40 40 40 40 39 39 40 40 40 41 41 40 40 39 42 44 44 44 47 49 52 54 55 58 61 62 64 63 62 61 58 56 57 56 54 53 53 53 54 55 nan nan nan nan nan nan nan nan nan nan nan nan nan nan nan nan nan nan nan nan nan nan nan nan nan nan nan nan nan nan nan nan nan nan nan
38 39 39 40 40 41 42 42 42 43 42 42 42 42 43 43 43 44 44 42 41 42 41 39 39 41 43 43 43 42 47 51 56 57 58 60 57 57 58 57 53 52 52 51 50 50 50 nan nan nan nan nan nan nan nan nan nan nan nan nan nan nan nan nan nan nan nan nan nan nan nan nan nan nan nan nan nan nan nan nan nan nan nan nan nan
38 42 45 44 42 42 42 42 42 42 42 42 42 44 45 44 45 46 46 45 45 46 45 44 43 44 44 42 43 44 49 50 51 53 53 52 50 49 49 48 46 45 46 48 nan nan nan nan nan nan nan nan nan nan nan nan nan nan nan nan nan nan nan nan nan nan nan nan nan nan nan nan nan nan nan nan nan nan nan nan nan nan nan nan nan
37 38 41 45 43 44 43 43 42 42 42 41 42 43 45 45 45 46 46 48 48 48 47 47 47 45 43 42 44 48 52 51 52 53 54 53 51 48 48 48 48 48 49 nan nan nan nan nan nan nan nan nan nan nan nan nan nan nan nan nan nan nan nan nan nan nan nan nan nan nan nan nan nan nan nan nan nan nan nan nan nan nan nan nan nan
37 37 40 43 45 44 45 45 45 45 44 43 42 43 45 46 46 44 45 49 52 51 48 47 49 49 48 51 53 54 54 55 55 56 55 55 53 52 52 53 nan nan nan nan nan nan nan nan nan nan nan nan nan nan nan nan nan nan nan nan nan nan nan nan nan nan nan nan nan nan nan nan nan nan nan nan nan nan nan nan nan nan nan nan nan
41 40 40 41 45 47 48 49 48 49 49 48 47 45 46 49 50 49 49 51 53 54 53 52 51 51 55 62 61 62 57 56 56 58 58 58 58 57 nan nan nan nan nan nan nan nan nan nan nan nan nan nan nan nan nan nan nan nan nan nan nan nan nan nan nan nan nan nan nan nan nan nan nan nan nan nan nan nan nan nan nan nan nan nan nan
47 43 42 44 47 48 50 52 51 52 53 52 50 49 49 50 52 54 52 50 54 54 54 54 54 56 57 59 61 62 58 58 59 59 59 nan nan nan nan nan nan nan nan nan nan nan nan nan nan nan nan nan nan nan nan nan nan nan nan nan nan nan nan nan nan nan nan nan nan nan nan nan nan nan nan nan nan nan nan nan nan nan nan nan nan
52 48 47 48 49 50 50 52 55 56 56 58 58 56 55 54 53 50 50 51 55 56 56 57 56 55 56 57 59 59 59 60 60 60 60 nan nan nan nan nan nan nan nan nan nan nan nan nan nan nan nan nan nan nan nan nan nan nan nan nan nan nan nan nan nan nan nan nan nan nan nan nan nan nan nan nan nan nan nan nan nan nan nan nan nan
54 53 51 51 52 53 54 54 57 57 58 57 57 58 59 59 55 52 52 54 55 55 57 59 59 60 60 61 61 62 62 62 62 nan nan nan nan nan nan nan nan nan nan nan nan nan nan nan nan nan nan nan nan nan nan nan nan nan nan nan nan nan nan nan nan nan nan nan nan nan nan nan nan nan nan nan nan nan nan nan nan nan nan nan nan
57 56 54 51 51 52 54 55 56 55 56 57 56 57 60 62 61 60 59 60 60 60 61 62 62 63 64 64 63 64 64 nan nan nan nan nan nan nan nan nan nan nan nan nan nan nan nan nan nan nan nan nan nan nan nan nan nan nan nan nan nan nan nan nan nan nan nan nan nan nan nan nan nan nan nan nan nan nan nan nan nan nan nan nan nan
59 55 51 49 48 50 52 53 54 55 56 56 56 57 59 61 63 65 64 64 63 63 63 63 65 66 66 67 66 nan nan nan nan nan nan nan nan nan nan nan nan nan nan nan nan nan nan nan nan nan nan nan nan nan nan nan nan nan nan nan nan nan nan nan nan nan nan nan nan nan nan nan nan nan nan nan nan nan nan nan nan nan nan nan nan
58 53 50 48 48 49 49 51 54 58 57 57 58 59 63 65 65 66 66 68 69 69 67 68 69 70 71 70 nan nan nan nan nan nan nan nan nan nan nan nan nan nan nan nan nan nan nan nan nan nan nan nan nan nan nan nan nan nan nan nan nan nan nan nan nan nan nan nan nan nan nan nan nan nan nan nan nan nan nan nan nan nan nan nan nan
55 52 51 51 52 51 51 53 54 57 59 59 60 62 64 66 68 69 71 73 75 75 74 75 75 75 75 75 nan nan nan nan nan nan nan nan nan nan nan nan nan nan nan nan nan nan nan nan nan nan nan nan nan nan nan nan nan nan nan nan nan nan nan nan nan nan nan nan nan nan nan nan nan nan nan nan nan nan nan nan nan nan nan nan nan
56 52 50 50 51 53 58 62 64 64 64 65 65 65 67 69 72 75 76 76 78 79 79 81 81 nan nan nan nan nan nan nan nan nan nan nan nan nan nan nan nan nan nan nan nan nan nan nan nan nan nan nan nan nan nan nan nan nan nan nan nan nan nan nan nan nan nan nan nan nan nan nan nan nan nan nan nan nan nan nan nan nan nan nan nan
58 58 58 59 60 60 63 67 69 69 69 69 68 66 65 66 69 72 75 80 82 83 83 84 85 nan nan nan nan nan nan nan nan nan nan nan nan nan nan nan nan nan nan nan nan nan nan nan nan nan nan nan nan nan nan nan nan nan nan nan nan nan nan nan nan nan nan nan nan nan nan nan nan nan nan nan nan nan nan nan nan nan nan nan nan
Wind_Direction
227 216 210 202 203 201 197 198 200 200 195 193 193 197 206 210 213 216 226 229 239 243 251 258 269 281 284 297 314 339 346 327 290 288 296 312 340 341 322 352 353 2 359 9 8 15 18 24 31 33 24 33 44 43 38 34 32 38 29 24 nan nan nan nan 36 58 48 nan nan nan 4 nan nan 359 5 360 356 354 356 356 354 352 354 355 357
228 226 217 208 204 201 199 200 202 202 197 194 194 201 206 210 214 223 230 232 241 241 251 248 260 284 281 309 322 338 332 329 290 282 290 309 309 300 347 349 346 352 325 20 10 9 6 17 26 28 12 31 35 39 38 37 33 34 29 21 25 22 nan 15 28 28 61 6 nan 5 14 350 3 343 357 356 358 346 351 349 347 348 348 352 351
230 228 223 215 207 202 203 203 205 203 198 196 198 204 209 212 219 223 225 230 235 240 244 252 264 276 285 298 310 312 315 303 283 286 300 309 314 300 297 309 326 334 6 13 19 352 5 7 23 17 351 18 31 36 26 36 34 37 35 20 23 22 16 nan 15 33 43 50 3 16 6 352 352 354 347 349 348 340 344 344 343 339 341 347 348
228 229 225 217 213 208 206 207 208 205 200 197 198 204 211 214 217 218 223 226 233 235 243 251 257 272 287 292 297 297 300 297 294 298 315 303 292 305 287 297 300 305 327 348 337 17 40 27 26 16 352 15 28 26 23 27 29 36 38 27 22 29 21 12 22 31 36 45 13 0 356 352 350 344 338 335 339 337 339 333 328 336 339 339 344
227 227 226 223 217 210 208 211 211 208 203 202 202 207 213 215 214 216 222 223 228 234 238 247 256 269 275 291 293 299 312 312 314 303 293 282 282 264 267 268 271 282 294 308 305 328 342 5 25 353 351 6 25 35 18 31 34 27 32 21 24 28 19 18 24 18 33 35 34 354 341 345 342 335 326 331 331 333 329 329 328 331 335 339 339
222 222 222 221 216 214 212 213 212 211 210 206 207 211 214 214 213 214 220 219 223 226 237 239 252 267 275 284 291 303 307 310 319 323 296 272 257 249 249 252 252 253 261 271 289 308 333 357 358 17 24 5 8 40 57 59 42 39 27 19 14 5 18 19 18 24 16 33 25 16 337 340 343 338 325 323 329 328 326 324 326 329 330 335 340
220 220 219 217 215 213 214 214 213 214 214 210 211 214 215 215 215 215 219 217 218 219 224 233 240 255 268 276 288 300 309 312 313 317 317 291 259 243 241 245 244 243 247 255 268 292 321 328 335 325 341 340 343 30 55 60 47 54 26 14 357 358 8 6 4 13 10 14 16 356 348 333 333 345 321 319 323 326 325 329 335 325 327 334 339
218 221 221 216 213 213 211 212 212 213 214 213 214 216 216 216 216 217 220 217 216 217 220 225 231 244 258 272 285 290 302 307 308 313 315 310 274 252 242 241 242 239 238 244 253 262 284 301 316 303 306 314 355 55 9 46 13 39 6 342 345 349 355 348 349 354 352 353 353 354 343 339 322 320 306 308 314 319 323 327 337 335 328 330 337
220 224 225 221 215 215 212 209 208 211 213 212 213 215 216 218 220 221 220 217 217 220 223 227 232 240 251 265 277 285 294 301 296 304 315 320 292 269 256 247 245 239 236 237 240 242 239 220 183 180 84 67 54 59 51 23 354 8 8 330 337 340 339 334 332 329 327 330 332 327 334 335 323 314 314 315 321 329 318 320 330 329 326 327 335
220 221 220 214 214 217 215 213 212 214 214 213 213 215 216 219 223 222 221 220 220 224 228 233 237 242 250 259 265 269 281 281 303 341 334 313 301 277 259 250 246 237 231 226 222 226 207 185 141 98 93 83 69 55 46 28 20 10 14 331 332 327 328 322 315 312 312 318 323 319 328 330 314 314 318 319 319 318 320 320 324 324 319 326 331
221 222 218 215 216 217 216 215 217 217 216 214 215 218 220 223 224 224 224 225 226 229 233 237 242 246 254 254 262 262 271 277 324 330 341 348 317 289 279 263 254 240 228 211 195 194 191 169 155 132 120 105 70 47 31 18 11 17 23 18 350 336 333 329 320 320 321 333 322 314 316 322 311 312 319 321 321 326 325 320 320 318 319 323 328
225 223 224 224 222 223 220 221 219 217 218 216 219 223 225 228 228 228 228 230 230 233 236 241 244 249 250 257 260 263 268 293 320 330 331 337 328 300 274 268 260 242 223 204 185 188 173 165 166 173 173 119 338 342 354 360 359 0 7 5 360 348 336 327 325 324 325 322 319 312 309 312 317 318 325 326 330 326 323 323 324 323 325 327 328
227 227 229 231 231 229 228 228 225 221 220 219 222 226 230 232 232 230 230 232 235 240 242 246 250 254 259 266 265 268 260 290 318 331 324 323 329 313 285 287 270 249 231 194 179 175 164 172 170 174 186 36 352 322 315 322 333 351 354 354 349 342 337 342 341 330 313 314 317 319 310 303 316 335 332 332 328 325 322 326 327 325 328 328 330
224 226 228 229 231 232 232 232 231 227 226 225 226 229 231 232 231 229 230 234 239 242 246 254 257 261 265 268 263 258 264 285 312 324 318 317 317 310 284 292 279 259 207 196 190 178 162 171 172 170 241 300 305 303 304 311 309 311 318 313 313 325 332 340 339 334 327 323 324 329 317 304 343 354 336 322 327 329 325 331 330 326 326 327 328
221 223 225 226 228 229 232 233 233 233 233 233 232 232 233 228 229 230 233 240 245 250 254 259 262 264 267 267 262 261 258 288 299 311 308 309 311 303 278 275 269 250 211 190 174 172 176 188 172 147 296 296 297 307 305 305 308 308 316 319 318 317 319 324 320 317 315 323 322 333 338 338 345 349 326 321 332 334 330 336 340 327 317 311 323
217 219 220 224 228 230 233 233 233 234 237 237 238 239 238 240 242 243 242 244 246 246 247 253 260 263 265 265 263 266 259 289 296 303 301 297 302 284 279 275 268 250 231 207 188 190 191 180 180 284 307 310 317 328 322 312 309 317 323 319 318 318 322 327 330 315 308 307 326 348 342 338 344 343 346 343 338 335 327 331 334 323 316 323 338
205 211 214 222 225 227 228 229 226 231 238 243 244 246 249 251 251 251 256 256 256 255 257 255 253 255 258 264 269 263 254 272 290 297 293 294 286 274 275 265 259 255 240 226 212 206 231 258 278 281 299 313 323 326 325 318 313 316 321 319 315 317 319 317 317 313 308 319 351 359 345 345 356 0 1 358 341 330 322 328 336 328 322 325 331
193 198 198 204 199 194 187 181 184 199 219 233 237 233 247 244 257 261 267 266 260 258 254 254 256 256 260 261 262 259 255 264 286 289 292 296 293 280 268 265 259 254 243 235 233 231 246 318 306 300 310 315 321 321 321 314 307 316 316 314 317 319 317 311 296 290 313 335 351 358 343 339 353 356 353 350 347 334 328 334 335 327 324 323 326
193 193 192 195 192 192 191 190 190 200 203 193 212 230 254 259 260 265 261 260 258 254 257 257 261 261 259 257 263 266 258 262 281 288 291 294 292 273 273 263 257 252 248 241 245 246 251 270 313 317 310 310 316 312 314 303 301 313 314 314 318 317 315 305 294 300 303 316 339 334 327 335 340 343 345 350 349 341 334 338 334 328 329 327 325
195 195 200 203 202 203 204 205 207 214 215 212 216 219 232 237 247 260 263 259 261 260 263 260 265 262 263 261 255 258 261 262 269 285 287 291 302 280 268 267 257 252 251 252 247 255 263 267 285 310 319 317 305 295 291 301 304 312 310 314 316 315 295 295 298 300 310 329 334 327 332 331 330 331 332 332 335 336 337 334 335 332 334 331 328
202 202 206 209 209 211 210 213 218 218 222 227 230 231 235 243 252 263 265 269 274 276 279 273 270 267 265 266 258 255 256 262 266 281 281 290 299 294 268 269 256 250 250 252 253 253 259 267 272 287 296 292 293 296 300 306 310 306 308 313 313 296 296 303 304 312 326 337 336 330 325 323 323 323 324 328 332 332 331 332 333 334 336 335 332
206 208 211 211 213 218 221 220 221 221 224 227 230 232 237 244 247 257 259 266 281 293 291 285 277 269 264 265 263 258 259 271 261 273 283 288 293 300 277 268 262 252 250 249 251 253 258 265 268 272 281 285 287 291 296 302 306 302 303 300 288 290 295 300 308 317 324 323 323 320 317 315 315 316 320 324 328 328 327 329 332 334 333 334 334
213 214 214 214 215 221 224 227 226 226 229 234 237 238 242 246 248 252 257 261 270 283 291 288 288 283 272 266 260 259 257 258 274 270 280 289 291 295 302 282 274 259 252 251 254 256 259 264 270 275 279 282 285 287 290 293 290 294 296 293 298 294 298 302 306 313 314 316 315 316 315 312 311 313 319 324 327 328 327 329 333 333 332 330 332
217 218 217 217 220 222 226 228 226 225 230 235 239 242 243 246 249 252 256 258 260 265 269 276 280 285 287 280 271 263 258 256 264 279 275 286 287 293 298 297 279 264 261 254 253 257 265 267 270 279 283 286 288 288 289 288 283 285 289 293 296 300 301 301 304 306 310 312 nan nan 313 312 313 nan nan nan nan nan nan nan 334 335 334 331 333
225 223 218 219 222 223 226 230 229 225 226 235 241 243 246 249 251 252 255 257 258 260 264 269 273 275 276 279 277 271 264 260 256 264 275 277 285 289 294 296 293 280 261 256 258 258 263 270 274 277 280 281 282 282 282 282 284 288 291 294 298 299 300 300 303 306 308 nan nan nan nan nan nan nan nan nan nan nan nan nan nan nan nan nan nan
235 236 233 229 227 226 228 232 232 229 234 240 245 248 253 255 256 256 258 259 260 261 263 265 267 268 268 267 266 266 267 263 261 259 260 265 268 278 286 288 285 278 271 257 264 268 272 273 275 275 274 275 276 276 279 281 283 285 286 290 295 298 300 301 302 nan nan nan nan nan nan nan nan nan nan nan nan nan nan nan nan nan nan nan nan
235 238 241 240 238 236 237 237 235 231 235 240 243 247 250 254 257 258 260 259 259 260 260 262 262 261 263 262 261 260 263 266 263 261 260 260 260 263 267 266 269 271 270 267 266 263 266 268 269 271 273 273 274 276 278 283 284 286 290 293 296 297 298 nan nan nan nan nan nan nan nan nan nan nan nan nan nan nan nan nan nan nan nan nan nan
233 234 237 239 239 240 239 242 241 236 237 240 243 245 248 251 254 258 259 258 259 259 260 262 265 265 264 262 261 258 261 264 264 265 266 264 262 262 262 262 265 265 266 268 268 266 267 269 269 270 272 273 276 277 278 280 284 288 291 293 294 nan nan nan nan nan nan nan nan nan nan nan nan nan nan nan nan nan nan nan nan nan nan nan nan
230 232 233 235 236 236 237 237 237 237 236 235 234 234 236 239 248 251 252 254 258 259 259 259 260 262 263 264 263 262 259 261 266 270 270 272 272 267 263 264 264 264 266 269 266 264 266 267 270 272 274 276 276 277 280 284 286 288 289 nan nan nan nan nan nan nan nan nan nan nan nan nan nan nan nan nan nan nan nan nan nan nan nan nan nan
230 230 232 234 235 237 237 236 237 237 239 239 239 236 237 241 238 241 247 240 241 246 253 257 257 258 259 259 260 265 265 261 260 266 263 263 259 260 258 262 264 264 270 272 269 268 269 270 271 273 274 276 279 280 281 282 284 285 nan nan nan nan nan nan nan nan nan nan nan nan nan nan nan nan nan nan nan nan nan nan nan nan nan nan nan
231 231 232 234 237 238 239 240 240 240 242 243 242 243 243 238 237 239 241 243 245 247 251 251 251 257 261 259 250 243 251 256 259 258 257 258 261 263 263 264 267 270 272 269 265 267 270 270 272 275 278 279 280 280 280 281 nan nan nan nan nan nan nan nan nan nan nan nan nan nan nan nan nan nan nan nan nan nan nan nan nan nan nan nan nan
235 234 235 235 239 241 242 244 246 247 248 248 249 250 249 250 246 242 244 248 249 250 248 253 259 262 266 266 263 252 254 259 262 260 259 258 257 259 264 268 271 272 270 267 266 267 270 273 275 276 277 278 278 280 281 nan nan nan nan nan nan nan nan nan nan nan nan nan nan nan nan nan nan nan nan nan nan nan nan nan nan nan nan nan nan
235 236 236 238 240 243 244 245 248 251 253 255 255 256 256 257 257 254 248 250 251 249 247 246 248 254 257 257 260 265 266 264 264 264 264 264 263 261 259 260 267 272 268 263 267 266 267 270 273 275 276 277 279 280 nan nan nan nan nan nan nan nan nan nan nan nan nan nan nan nan nan nan nan nan nan nan nan nan nan nan nan nan nan nan nan
238 237 237 240 242 242 244 245 247 249 252 253 255 255 253 255 258 258 257 255 249 246 244 243 247 253 256 263 265 264 264 264 262 263 263 263 263 263 262 260 259 260 263 267 266 267 268 269 270 274 276 278 279 nan nan nan nan nan nan nan nan nan nan nan nan nan nan nan nan nan nan nan nan nan nan nan nan nan nan nan nan nan nan nan nan
235 239 244 242 242 243 243 245 245 247 250 250 250 249 250 251 255 255 255 256 255 253 253 250 246 248 256 260 263 264 264 262 258 255 252 254 256 260 259 256 257 259 260 263 267 268 267 268 271 274 276 277 nan nan nan nan nan nan nan nan nan nan nan nan nan nan nan nan nan nan nan nan nan nan nan nan nan nan nan nan nan nan nan nan nan
238 237 236 241 243 244 244 244 245 247 249 250 250 250 251 253 253 255 256 257 259 260 258 256 259 255 256 256 259 261 261 260 260 259 257 256 254 255 257 257 257 257 261 262 266 267 268 271 272 273 275 nan nan nan nan nan nan nan nan nan nan nan nan nan nan nan nan nan nan nan nan nan nan nan nan nan nan nan nan nan nan nan nan nan nan
240 239 240 241 243 245 245 245 246 248 249 252 253 254 254 255 257 257 257 258 259 259 262 264 263 261 259 258 259 261 263 263 262 261 259 258 258 259 261 263 265 264 264 264 266 268 271 272 274 275 nan nan nan nan nan nan nan nan nan nan nan nan nan nan nan nan nan nan nan nan nan nan nan nan nan nan nan nan nan nan nan nan nan nan nan
241 242 241 242 244 245 247 248 249 250 250 252 254 255 256 257 258 260 259 258 259 262 262 260 259 262 264 264 266 266 265 265 262 259 258 257 259 262 265 266 266 266 265 266 267 269 272 nan nan nan nan nan nan nan nan nan nan nan nan nan nan nan nan nan nan nan nan nan nan nan nan nan nan nan nan nan nan nan nan nan nan nan nan nan nan
250 249 248 246 244 246 247 249 249 250 251 254 256 258 259 259 259 258 259 260 259 258 258 258 257 258 262 265 265 266 265 261 261 262 262 262 263 263 262 261 262 263 265 267 nan nan nan nan nan nan nan nan nan nan nan nan nan nan nan nan nan nan nan nan nan nan nan nan nan nan nan nan nan nan nan nan nan nan nan nan nan nan nan nan nan
256 256 252 250 246 244 246 246 248 250 251 253 256 258 259 259 259 261 261 260 258 257 257 257 255 253 254 255 260 264 263 264 263 265 265 265 265 263 263 264 266 269 271 nan nan nan nan nan nan nan nan nan nan nan nan nan nan nan nan nan nan nan nan nan nan nan nan nan nan nan nan nan nan nan nan nan nan nan nan nan nan nan nan nan nan
257 259 258 252 251 249 246 245 244 245 249 250 251 256 259 259 259 257 258 261 261 257 254 255 255 255 254 256 257 260 262 264 264 264 265 267 266 265 265 266 nan nan nan nan nan nan nan nan nan nan nan nan nan nan nan nan nan nan nan nan nan nan nan nan nan nan nan nan nan nan nan nan nan nan nan nan nan nan nan nan nan nan nan nan nan
252 260 260 256 251 250 250 249 248 247 247 249 249 249 254 259 256 255 256 260 261 259 258 256 256 256 255 257 259 261 261 262 264 265 266 267 268 268 nan nan nan nan nan nan nan nan nan nan nan nan nan nan nan nan nan nan nan nan nan nan nan nan nan nan nan nan nan nan nan nan nan nan nan nan nan nan nan nan nan nan nan nan nan nan nan
249 256 262 259 253 249 251 253 251 250 249 247 247 249 248 251 257 259 257 257 260 260 259 259 258 258 256 254 257 260 262 262 263 264 265 nan nan nan nan nan nan nan nan nan nan nan nan nan nan nan nan nan nan nan nan nan nan nan nan nan nan nan nan nan nan nan nan nan nan nan nan nan nan nan nan nan nan nan nan nan nan nan nan nan nan
251 257 261 258 252 250 249 250 252 253 254 255 254 250 248 251 254 254 258 259 260 260 259 258 258 258 258 256 257 258 260 261 262 263 264 nan nan nan nan nan nan nan nan nan nan nan nan nan nan nan nan nan nan nan nan nan nan nan nan nan nan nan nan nan nan nan nan nan nan nan nan nan nan nan nan nan nan nan nan nan nan nan nan nan nan
254 260 261 255 250 249 249 247 251 253 254 254 255 255 256 256 253 250 253 255 257 257 257 257 257 258 258 257 257 258 259 260 261 nan nan nan nan nan nan nan nan nan nan nan nan nan nan nan nan nan nan nan nan nan nan nan nan nan nan nan nan nan nan nan nan nan nan nan nan nan nan nan nan nan nan nan nan nan nan nan nan nan nan nan nan
260 263 257 249 247 247 246 247 249 249 250 252 254 255 256 259 259 258 257 256 256 258 258 257 257 257 257 258 258 259 260 nan nan nan nan nan nan nan nan nan nan nan nan nan nan nan nan nan nan nan nan nan nan nan nan nan nan nan nan nan nan nan nan nan nan nan nan nan nan nan nan nan nan nan nan nan nan nan nan nan nan nan nan nan nan
262 259 249 243 246 247 247 248 250 250 250 251 251 253 255 258 261 262 262 261 260 259 259 259 259 258 258 259 259 nan nan nan nan nan nan nan nan nan nan nan nan nan nan nan nan nan nan nan nan nan nan nan nan nan nan nan nan nan nan nan nan nan nan nan nan nan nan nan nan nan nan nan nan nan nan nan nan nan nan nan nan nan nan nan nan
260 253 244 243 246 247 246 248 250 249 250 251 252 252 254 256 257 260 262 263 262 262 261 261 261 261 260 260 nan nan nan nan nan nan nan nan nan nan nan nan nan nan nan nan nan nan nan nan nan nan nan nan nan nan nan nan nan nan nan nan nan nan nan nan nan nan nan nan nan nan nan nan nan nan nan nan nan nan nan nan nan nan nan nan nan
260 253 247 246 247 247 249 253 257 258 258 255 253 253 254 256 256 257 258 259 260 261 262 262 261 262 262 262 nan nan nan nan nan nan nan nan nan nan nan nan nan nan nan nan nan nan nan nan nan nan nan nan nan nan nan nan nan nan nan nan nan nan nan nan nan nan nan nan nan nan nan nan nan nan nan nan nan nan nan nan nan nan nan nan nan
246 240 241 249 255 260 265 268 268 267 265 262 259 257 256 256 256 257 258 258 259 259 260 260 261 nan nan nan nan nan nan nan nan nan nan nan nan nan nan nan nan nan nan nan nan nan nan nan nan nan nan nan nan nan nan nan nan nan nan nan nan nan nan nan nan nan nan nan nan nan nan nan nan nan nan nan nan nan nan nan nan nan nan nan nan
246 246 250 255 259 262 266 271 274 276 275 272 268 263 259 259 260 259 258 258 258 258 259 260 260 nan nan nan nan nan nan nan nan nan nan nan nan nan nan nan nan nan nan nan nan nan nan nan nan nan nan nan nan nan nan nan nan nan nan nan nan nan nan nan nan nan nan nan nan nan nan nan nan nan nan nan nan nan nan nan nan nan nan nan nan